Time,TemperatureF,DewpointF,PressureIn,WindDirection,WindDirectionDegrees,WindSpeedMPH,WindSpeedGustMPH,Humidity,HourlyPrecipIn,Conditions,Clouds,dailyrainin,SoftwareType,DateUTC
2013-07-27 00:04:00,60.2,56.9,30.01,East,81,0.0,0.0,89,0.00,,,0.00,Wunderground v.1.15,2013-07-27 04:04:00,
2013-07-27 00:09:00,60.0,56.7,30.01,East,81,0.0,0.0,89,0.00,,,0.00,Wunderground v.1.15,2013-07-27 04:09:00,
2013-07-27 00:14:00,59.8,56.9,30.01,East,81,0.0,0.0,90,0.00,,,0.00,Wunderground v.1.15,2013-07-27 04:14:00,
2013-07-27 00:19:00,59.8,56.9,30.01,East,81,0.0,0.0,90,0.00,,,0.00,Wunderground v.1.15,2013-07-27 04:19:00,
2013-07-27 00:24:00,59.7,56.8,30.01,East,81,0.0,0.0,90,0.00,,,0.00,Wunderground v.1.15,2013-07-27 04:24:00,
2013-07-27 00:29:00,59.6,57.0,30.01,East,81,0.0,0.0,91,0.00,,,0.00,Wunderground v.1.15,2013-07-27 04:29:00,
2013-07-27 00:39:00,59.3,56.7,30.01,East,81,0.0,0.0,91,0.00,,,0.00,Wunderground v.1.15,2013-07-27 04:39:00,
2013-07-27 00:44:00,59.2,56.9,30.01,East,81,0.0,0.0,92,0.00,,,0.00,Wunderground v.1.15,2013-07-27 04:44:00,
2013-07-27 00:49:00,59.1,56.8,30.01,East,81,0.0,0.0,92,0.00,,,0.00,Wunderground v.1.15,2013-07-27 04:49:00,
2013-07-27 00:54:00,59.2,57.2,30.01,East,82,0.0,0.0,93,0.00,,,0.00,Wunderground v.1.15,2013-07-27 04:54:00,
2013-07-27 00:59:00,59.4,57.4,30.01,East,82,0.0,0.0,93,0.00,,,0.00,Wunderground v.1.15,2013-07-27 04:59:00,
2013-07-27 01:04:00,59.5,57.5,30.01,East,82,0.0,0.0,93,0.00,,,0.00,Wunderground v.1.15,2013-07-27 05:04:00,
2013-07-27 01:09:00,59.3,57.3,30.01,East,82,0.0,0.0,93,0.00,,,0.00,Wunderground v.1.15,2013-07-27 05:09:00,
2013-07-27 01:14:00,59.2,57.5,30.01,East,82,0.0,0.0,94,0.00,,,0.00,Wunderground v.1.15,2013-07-27 05:14:00,
2013-07-27 01:19:00,59.1,57.4,30.01,East,82,0.0,0.0,94,0.00,,,0.00,Wunderground v.1.15,2013-07-27 05:19:00,
2013-07-27 01:29:00,58.9,57.2,30.01,East,82,0.0,0.0,94,0.00,,,0.00,Wunderground v.1.15,2013-07-27 05:29:00,
2013-07-27 01:34:00,58.8,57.1,30.01,East,82,0.0,0.0,94,0.00,,,0.00,Wunderground v.1.15,2013-07-27 05:34:00,
2013-07-27 01:39:00,58.7,57.3,30.00,East,82,0.0,0.0,95,0.00,,,0.00,Wunderground v.1.15,2013-07-27 05:39:00,
2013-07-27 01:44:00,58.6,57.2,30.00,East,82,0.0,0.0,95,0.00,,,0.00,Wunderground v.1.15,2013-07-27 05:44:00,
2013-07-27 01:49:00,58.5,57.1,30.00,East,82,0.0,0.0,95,0.00,,,0.00,Wunderground v.1.15,2013-07-27 05:49:00,
2013-07-27 01:54:00,58.4,57.0,30.00,East,82,0.0,0.0,95,0.00,,,0.00,Wunderground v.1.15,2013-07-27 05:54:00,
2013-07-27 02:00:00,58.3,56.9,30.00,East,82,0.0,0.0,95,0.00,,,0.00,Wunderground v.1.15,2013-07-27 06:00:00,
2013-07-27 02:09:00,58.1,57.0,30.00,East,82,0.0,0.0,96,0.00,,,0.00,Wunderground v.1.15,2013-07-27 06:09:00,
2013-07-27 02:14:00,58.0,56.9,30.00,East,82,0.0,0.0,96,0.00,,,0.00,Wunderground v.1.15,2013-07-27 06:14:00,
2013-07-27 02:19:00,58.0,56.9,29.99,East,82,0.0,0.0,96,0.00,,,0.00,Wunderground v.1.15,2013-07-27 06:19:00,
2013-07-27 02:24:00,58.0,56.9,29.99,East,82,0.0,0.0,96,0.00,,,0.00,Wunderground v.1.15,2013-07-27 06:24:00,
2013-07-27 02:29:00,58.0,56.9,29.99,East,82,0.0,0.0,96,0.00,,,0.00,Wunderground v.1.15,2013-07-27 06:29:00,
2013-07-27 02:34:00,58.0,57.2,29.99,East,82,0.0,0.0,97,0.00,,,0.00,Wunderground v.1.15,2013-07-27 06:34:00,
2013-07-27 02:44:00,58.0,57.2,29.98,East,82,0.0,0.0,97,0.00,,,0.00,Wunderground v.1.15,2013-07-27 06:44:00,
2013-07-27 02:49:00,58.0,57.2,29.98,East,82,0.0,0.0,97,0.00,,,0.00,Wunderground v.1.15,2013-07-27 06:49:00,
2013-07-27 02:54:00,58.0,57.2,29.98,East,82,0.0,0.0,97,0.00,,,0.00,Wunderground v.1.15,2013-07-27 06:54:00,
2013-07-27 02:59:00,58.0,57.2,29.98,East,82,0.0,0.0,97,0.00,,,0.00,Wunderground v.1.15,2013-07-27 06:59:00,
2013-07-27 03:09:00,58.1,57.3,29.98,East,82,0.0,0.0,97,0.00,,,0.00,Wunderground v.1.15,2013-07-27 07:09:00,
2013-07-27 03:19:00,58.6,58.0,29.98,SE,129,0.0,0.0,98,0.00,,,0.00,Wunderground v.1.15,2013-07-27 07:19:00,
2013-07-27 03:24:00,58.7,57.9,29.98,SE,129,0.0,0.0,97,0.00,,,0.00,Wunderground v.1.15,2013-07-27 07:24:00,
2013-07-27 03:29:00,59.3,58.7,29.98,SE,124,0.0,0.0,98,0.00,,,0.00,Wunderground v.1.15,2013-07-27 07:29:00,
2013-07-27 03:34:00,60.0,58.9,29.98,East,98,1.0,1.0,96,0.00,,,0.00,Wunderground v.1.15,2013-07-27 07:34:00,
2013-07-27 03:39:00,60.2,58.8,29.98,ESE,110,0.0,0.0,95,0.00,,,0.00,Wunderground v.1.15,2013-07-27 07:39:00,
2013-07-27 03:49:00,60.4,58.7,29.97,East,91,1.0,1.0,94,0.00,,,0.00,Wunderground v.1.15,2013-07-27 07:49:00,
2013-07-27 03:54:00,60.5,58.8,29.97,ESE,116,1.0,1.0,94,0.00,,,0.00,Wunderground v.1.15,2013-07-27 07:54:00,
2013-07-27 03:59:00,60.5,58.8,29.97,ESE,121,0.0,0.0,94,0.00,,,0.00,Wunderground v.1.15,2013-07-27 07:59:00,
2013-07-27 04:09:00,60.4,58.4,29.97,ESE,120,0.0,0.0,93,0.00,,,0.00,Wunderground v.1.15,2013-07-27 08:09:00,
2013-07-27 04:14:00,60.6,58.6,29.97,SE,125,1.0,2.0,93,0.00,,,0.00,Wunderground v.1.15,2013-07-27 08:14:00,
2013-07-27 04:24:00,60.8,58.5,29.97,ESE,106,1.0,2.0,92,0.00,,,0.00,Wunderground v.1.15,2013-07-27 08:24:00,
2013-07-27 04:29:00,60.9,58.3,29.97,ESE,108,1.0,3.0,91,0.00,,,0.00,Wunderground v.1.15,2013-07-27 08:29:00,
2013-07-27 04:34:00,61.0,58.0,29.97,East,101,2.0,3.0,90,0.00,,,0.00,Wunderground v.1.15,2013-07-27 08:34:00,
2013-07-27 04:39:00,61.1,58.1,29.97,East,98,1.0,1.0,90,0.00,,,0.00,Wunderground v.1.15,2013-07-27 08:39:00,
2013-07-27 04:44:00,61.1,57.8,29.97,SE,133,1.0,1.0,89,0.00,,,0.00,Wunderground v.1.15,2013-07-27 08:44:00,
2013-07-27 04:54:00,61.1,57.5,29.96,SSE,150,1.0,1.0,88,0.00,,,0.00,Wunderground v.1.15,2013-07-27 08:54:00,
2013-07-27 04:59:00,61.0,57.4,29.96,East,97,0.0,0.0,88,0.00,,,0.00,Wunderground v.1.15,2013-07-27 08:59:00,
2013-07-27 05:09:00,60.7,57.1,29.97,ENE,75,0.0,0.0,88,0.00,,,0.00,Wunderground v.1.15,2013-07-27 09:09:00,
2013-07-27 05:14:00,60.7,57.1,29.97,ENE,72,0.0,0.0,88,0.00,,,0.00,Wunderground v.1.15,2013-07-27 09:14:00,
2013-07-27 05:19:00,60.6,57.0,29.97,SE,138,0.0,0.0,88,0.00,,,0.00,Wunderground v.1.15,2013-07-27 09:19:00,
2013-07-27 05:29:00,60.3,56.7,29.97,East,98,0.0,0.0,88,0.00,,,0.00,Wunderground v.1.15,2013-07-27 09:29:00,
2013-07-27 05:34:00,60.1,56.5,29.97,East,98,0.0,0.0,88,0.00,,,0.00,Wunderground v.1.15,2013-07-27 09:34:00,
2013-07-27 05:44:00,60.1,56.5,29.97,ESE,113,0.0,1.0,88,0.00,,,0.00,Wunderground v.1.15,2013-07-27 09:44:00,
2013-07-27 05:49:00,60.3,56.7,29.97,East,98,0.0,0.0,88,0.00,,,0.00,Wunderground v.1.15,2013-07-27 09:49:00,
2013-07-27 05:54:00,60.4,56.8,29.97,East,79,0.0,1.0,88,0.00,,,0.00,Wunderground v.1.15,2013-07-27 09:54:00,
2013-07-27 06:00:00,60.5,56.6,29.97,ESE,117,1.0,1.0,87,0.00,,,0.00,Wunderground v.1.15,2013-07-27 10:00:00,
2013-07-27 06:09:00,60.5,56.9,29.97,ESE,115,0.0,0.0,88,0.00,,,0.00,Wunderground v.1.15,2013-07-27 10:09:00,
2013-07-27 06:14:00,60.5,56.6,29.97,ESE,110,0.0,0.0,87,0.00,,,0.00,Wunderground v.1.15,2013-07-27 10:14:00,
2013-07-27 06:19:00,60.5,56.9,29.97,SSE,165,0.0,0.0,88,0.00,,,0.00,Wunderground v.1.15,2013-07-27 10:19:00,
2013-07-27 06:24:00,60.6,56.7,29.97,East,98,0.0,0.0,87,0.00,,,0.00,Wunderground v.1.15,2013-07-27 10:24:00,
2013-07-27 06:29:00,60.6,56.7,29.97,WNW,290,0.0,0.0,87,0.00,,,0.00,Wunderground v.1.15,2013-07-27 10:29:00,
2013-07-27 06:34:00,60.7,56.8,29.97,WSW,251,0.0,0.0,87,0.00,,,0.00,Wunderground v.1.15,2013-07-27 10:34:00,
2013-07-27 06:39:00,60.8,56.9,29.97,WSW,251,0.0,0.0,87,0.00,,,0.00,Wunderground v.1.15,2013-07-27 10:39:00,
2013-07-27 06:44:00,60.9,57.0,29.97,WSW,251,0.0,0.0,87,0.00,,,0.00,Wunderground v.1.15,2013-07-27 10:44:00,
2013-07-27 06:49:00,61.2,57.0,29.97,ESE,106,0.0,0.0,86,0.00,,,0.00,Wunderground v.1.15,2013-07-27 10:49:00,
2013-07-27 06:54:00,61.5,57.3,29.97,ESE,122,0.0,0.0,86,0.00,,,0.00,Wunderground v.1.15,2013-07-27 10:54:00,
2013-07-27 06:59:00,61.8,57.6,29.97,ESE,114,0.0,0.0,86,0.00,,,0.00,Wunderground v.1.15,2013-07-27 10:59:00,
2013-07-27 07:09:00,62.5,58.3,29.98,West,278,0.0,0.0,86,0.00,,,0.00,Wunderground v.1.15,2013-07-27 11:09:00,
2013-07-27 07:14:00,62.9,59.0,29.97,ESE,112,0.0,0.0,87,0.00,,,0.00,Wunderground v.1.15,2013-07-27 11:14:00,
2013-07-27 07:19:00,63.2,58.9,29.97,ESE,103,0.0,1.0,86,0.00,,,0.00,Wunderground v.1.15,2013-07-27 11:19:00,
2013-07-27 07:24:00,63.4,59.1,29.97,WNW,293,0.0,1.0,86,0.00,,,0.00,Wunderground v.1.15,2013-07-27 11:24:00,
2013-07-27 07:34:00,63.8,59.5,29.97,East,95,0.0,1.0,86,0.00,,,0.00,Wunderground v.1.15,2013-07-27 11:34:00,
2013-07-27 07:39:00,64.1,59.8,29.97,ESE,112,0.0,0.0,86,0.00,,,0.00,Wunderground v.1.15,2013-07-27 11:39:00,
2013-07-27 07:44:00,64.4,60.1,29.98,SE,131,0.0,1.0,86,0.00,,,0.00,Wunderground v.1.15,2013-07-27 11:44:00,
2013-07-27 07:49:00,64.8,60.2,29.98,WNW,302,1.0,1.0,85,0.00,,,0.00,Wunderground v.1.15,2013-07-27 11:49:00,
2013-07-27 07:54:00,65.2,60.6,29.98,SSE,162,1.0,1.0,85,0.00,,,0.00,Wunderground v.1.15,2013-07-27 11:54:00,
2013-07-27 07:59:00,65.6,60.0,29.98,East,83,1.0,2.0,82,0.00,,,0.00,Wunderground v.1.15,2013-07-27 11:59:00,
2013-07-27 08:09:00,66.4,60.7,29.98,WSW,248,2.0,2.0,82,0.00,,,0.00,Wunderground v.1.15,2013-07-27 12:09:00,
2013-07-27 08:14:00,66.8,60.8,29.98,SSE,158,1.0,2.0,81,0.00,,,0.00,Wunderground v.1.15,2013-07-27 12:14:00,
2013-07-27 08:19:00,67.2,60.8,29.97,ESE,118,0.0,3.0,80,0.00,,,0.00,Wunderground v.1.15,2013-07-27 12:19:00,
2013-07-27 08:24:00,67.3,60.9,29.97,East,79,1.0,3.0,80,0.00,,,0.00,Wunderground v.1.15,2013-07-27 12:24:00,
2013-07-27 08:29:00,67.3,61.3,29.97,SSW,210,1.0,1.0,81,0.00,,,0.00,Wunderground v.1.15,2013-07-27 12:29:00,
2013-07-27 08:39:00,67.5,61.1,29.97,East,88,1.0,2.0,80,0.00,,,0.00,Wunderground v.1.15,2013-07-27 12:39:00,
2013-07-27 08:44:00,67.7,61.7,29.97,WSW,245,0.0,2.0,81,0.00,,,0.00,Wunderground v.1.15,2013-07-27 12:44:00,
2013-07-27 08:49:00,67.9,61.1,29.97,WSW,248,0.0,0.0,79,0.00,,,0.00,Wunderground v.1.15,2013-07-27 12:49:00,
2013-07-27 08:54:00,67.9,61.5,29.97,WSW,258,0.0,0.0,80,0.00,,,0.00,Wunderground v.1.15,2013-07-27 12:54:00,
2013-07-27 08:59:00,67.9,61.1,29.97,SE,143,1.0,1.0,79,0.00,,,0.00,Wunderground v.1.15,2013-07-27 12:59:00,
2013-07-27 09:09:00,68.1,61.3,29.97,ESE,106,1.0,1.0,79,0.00,,,0.00,Wunderground v.1.15,2013-07-27 13:09:00,
2013-07-27 09:14:00,68.7,61.9,29.97,ESE,115,0.0,1.0,79,0.00,,,0.00,Wunderground v.1.15,2013-07-27 13:14:00,
2013-07-27 09:19:00,69.0,61.9,29.97,ESE,123,1.0,1.0,78,0.00,,,0.00,Wunderground v.1.15,2013-07-27 13:19:00,
2013-07-27 09:24:00,69.0,61.9,29.97,ESE,122,1.0,1.0,78,0.00,,,0.00,Wunderground v.1.15,2013-07-27 13:24:00,
2013-07-27 09:29:00,69.2,62.4,29.97,ESE,120,1.0,1.0,79,0.00,,,0.00,Wunderground v.1.15,2013-07-27 13:29:00,
2013-07-27 09:34:00,69.4,62.6,29.97,ESE,112,1.0,2.0,79,0.00,,,0.00,Wunderground v.1.15,2013-07-27 13:34:00,
2013-07-27 09:44:00,69.3,62.1,29.97,ESE,110,1.0,2.0,78,0.00,,,0.00,Wunderground v.1.15,2013-07-27 13:44:00,
2013-07-27 09:49:00,69.4,62.2,29.96,ESE,103,1.0,4.0,78,0.00,,,0.00,Wunderground v.1.15,2013-07-27 13:49:00,
2013-07-27 09:54:00,69.4,62.2,29.96,ESE,107,1.0,4.0,78,0.00,,,0.00,Wunderground v.1.15,2013-07-27 13:54:00,
2013-07-27 09:59:00,69.7,62.2,29.96,East,79,1.0,2.0,77,0.00,,,0.00,Wunderground v.1.15,2013-07-27 13:59:00,
2013-07-27 10:09:00,70.0,62.8,29.97,ESE,106,1.0,1.0,78,0.00,,,0.00,Wunderground v.1.15,2013-07-27 14:09:00,
2013-07-27 10:19:00,70.9,63.7,29.96,SSE,155,1.0,1.0,78,0.00,,,0.00,Wunderground v.1.15,2013-07-27 14:19:00,
2013-07-27 10:24:00,71.2,63.2,29.96,SSE,153,1.0,1.0,76,0.00,,,0.00,Wunderground v.1.15,2013-07-27 14:24:00,
2013-07-27 10:29:00,71.7,63.7,29.96,SE,141,1.0,1.0,76,0.00,,,0.00,Wunderground v.1.15,2013-07-27 14:29:00,
2013-07-27 10:34:00,72.3,63.5,29.96,SE,146,2.0,2.0,74,0.00,,,0.00,Wunderground v.1.15,2013-07-27 14:34:00,
2013-07-27 10:39:00,73.1,63.9,29.96,West,262,2.0,2.0,73,0.00,,,0.00,Wunderground v.1.15,2013-07-27 14:39:00,
2013-07-27 10:49:00,73.1,63.5,29.95,East,101,2.0,2.0,72,0.00,,,0.00,Wunderground v.1.15,2013-07-27 14:49:00,
2013-07-27 10:54:00,73.6,63.6,29.95,ESE,123,2.0,2.0,71,0.00,,,0.00,Wunderground v.1.15,2013-07-27 14:54:00,
2013-07-27 10:59:00,73.9,63.5,29.95,SSE,158,1.0,1.0,70,0.00,,,0.00,Wunderground v.1.15,2013-07-27 14:59:00,
2013-07-27 11:09:00,74.5,64.1,29.95,WSW,240,1.0,1.0,70,0.00,,,0.00,Wunderground v.1.15,2013-07-27 15:09:00,
2013-07-27 11:14:00,74.5,64.5,29.95,ESE,109,1.0,3.0,71,0.00,,,0.00,Wunderground v.1.15,2013-07-27 15:14:00,
2013-07-27 11:19:00,74.6,65.0,29.95,East,93,1.0,4.0,72,0.00,,,0.00,Wunderground v.1.15,2013-07-27 15:19:00,
2013-07-27 11:24:00,74.8,64.4,29.95,SW,223,2.0,4.0,70,0.00,,,0.00,Wunderground v.1.15,2013-07-27 15:24:00,
2013-07-27 11:29:00,74.8,63.9,29.95,ESE,113,2.0,2.0,69,0.00,,,0.00,Wunderground v.1.15,2013-07-27 15:29:00,
2013-07-27 11:34:00,74.8,64.4,29.95,South,169,2.0,2.0,70,0.00,,,0.00,Wunderground v.1.15,2013-07-27 15:34:00,
2013-07-27 11:39:00,75.6,64.7,29.95,East,80,2.0,2.0,69,0.00,,,0.00,Wunderground v.1.15,2013-07-27 15:39:00,
2013-07-27 11:44:00,76.2,64.4,29.95,SE,139,1.0,2.0,67,0.00,,,0.00,Wunderground v.1.15,2013-07-27 15:44:00,
2013-07-27 11:54:00,76.2,64.0,29.94,East,100,2.0,2.0,66,0.00,,,0.00,Wunderground v.1.15,2013-07-27 15:54:00,
2013-07-27 11:59:00,76.8,64.6,29.94,ESE,121,2.0,4.0,66,0.00,,,0.00,Wunderground v.1.15,2013-07-27 15:59:00,
2013-07-27 12:09:00,78.1,64.5,29.94,ESE,104,2.0,2.0,63,0.00,,,0.00,Wunderground v.1.15,2013-07-27 16:09:00,
2013-07-27 12:14:00,78.5,64.4,29.94,East,99,2.0,5.0,62,0.00,,,0.00,Wunderground v.1.15,2013-07-27 16:14:00,
2013-07-27 12:24:00,79.0,65.3,29.94,SSE,168,2.0,2.0,63,0.00,,,0.00,Wunderground v.1.15,2013-07-27 16:24:00,
2013-07-27 12:29:00,79.1,65.4,29.93,SE,133,2.0,4.0,63,0.00,,,0.00,Wunderground v.1.15,2013-07-27 16:29:00,
2013-07-27 12:34:00,78.8,63.7,29.93,SE,137,2.0,6.0,60,0.00,,,0.00,Wunderground v.1.15,2013-07-27 16:34:00,
2013-07-27 12:39:00,79.0,64.4,29.93,East,100,3.0,3.0,61,0.00,,,0.00,Wunderground v.1.15,2013-07-27 16:39:00,
2013-07-27 12:44:00,79.3,64.7,29.92,SSW,210,2.0,3.0,61,0.00,,,0.00,Wunderground v.1.15,2013-07-27 16:44:00,
2013-07-27 12:49:00,79.3,64.2,29.92,West,264,2.0,2.0,60,0.00,,,0.00,Wunderground v.1.15,2013-07-27 16:49:00,
2013-07-27 12:59:00,79.0,64.9,29.92,West,264,1.0,1.0,62,0.00,,,0.00,Wunderground v.1.15,2013-07-27 16:59:00,
2013-07-27 13:09:00,78.7,64.1,29.92,ESE,119,2.0,2.0,61,0.00,,,0.00,Wunderground v.1.15,2013-07-27 17:09:00,
2013-07-27 13:14:00,78.9,64.8,29.92,East,99,2.0,3.0,62,0.00,,,0.00,Wunderground v.1.15,2013-07-27 17:14:00,
2013-07-27 13:19:00,79.2,65.5,29.92,ESE,108,1.0,1.0,63,0.00,,,0.00,Wunderground v.1.15,2013-07-27 17:19:00,
2013-07-27 13:29:00,79.4,64.8,29.91,East,91,2.0,3.0,61,0.00,,,0.00,Wunderground v.1.15,2013-07-27 17:29:00,
2013-07-27 13:34:00,80.1,65.9,29.91,WSW,240,2.0,3.0,62,0.00,,,0.00,Wunderground v.1.15,2013-07-27 17:34:00,
2013-07-27 13:44:00,81.3,66.6,29.90,ESE,113,1.0,2.0,61,0.00,,,0.00,Wunderground v.1.15,2013-07-27 17:44:00,
2013-07-27 13:49:00,81.7,66.5,29.90,ENE,77,2.0,4.0,60,0.00,,,0.00,Wunderground v.1.15,2013-07-27 17:49:00,
2013-07-27 13:54:00,81.4,65.7,29.90,East,91,2.0,4.0,59,0.00,,,0.00,Wunderground v.1.15,2013-07-27 17:54:00,
2013-07-27 13:59:00,81.2,66.9,29.90,ESE,109,3.0,3.0,62,0.00,,,0.00,Wunderground v.1.15,2013-07-27 17:59:00,
2013-07-27 14:09:00,81.0,66.8,29.90,ESE,108,2.0,2.0,62,0.00,,,0.00,Wunderground v.1.15,2013-07-27 18:09:00,
2013-07-27 14:14:00,81.2,66.5,29.90,ESE,105,2.0,6.0,61,0.00,,,0.00,Wunderground v.1.15,2013-07-27 18:14:00,
2013-07-27 14:19:00,81.5,66.8,29.90,ESE,103,2.0,3.0,61,0.00,,,0.00,Wunderground v.1.15,2013-07-27 18:19:00,
2013-07-27 14:24:00,81.6,66.8,29.89,ESE,103,2.0,4.0,61,0.00,,,0.00,Wunderground v.1.15,2013-07-27 18:24:00,
2013-07-27 14:34:00,80.8,66.1,29.90,ESE,104,2.0,2.0,61,0.00,,,0.00,Wunderground v.1.15,2013-07-27 18:34:00,
2013-07-27 14:39:00,80.9,66.2,29.89,ESE,113,2.0,3.0,61,0.00,,,0.00,Wunderground v.1.15,2013-07-27 18:39:00,
2013-07-27 14:44:00,81.2,66.5,29.90,East,84,2.0,3.0,61,0.00,,,0.00,Wunderground v.1.15,2013-07-27 18:44:00,
2013-07-27 14:49:00,81.0,66.8,29.89,ESE,118,2.0,2.0,62,0.00,,,0.00,Wunderground v.1.15,2013-07-27 18:49:00,
2013-07-27 14:54:00,80.9,66.7,29.89,WSW,257,2.0,2.0,62,0.00,,,0.00,Wunderground v.1.15,2013-07-27 18:54:00,
2013-07-27 14:59:00,80.6,67.7,29.89,ESE,117,1.0,1.0,65,0.00,,,0.00,Wunderground v.1.15,2013-07-27 18:59:00,
2013-07-27 15:09:00,78.3,70.1,29.89,ESE,115,1.0,1.0,76,0.26,,,0.07,Wunderground v.1.15,2013-07-27 19:09:00,
2013-07-27 15:14:00,77.9,70.5,29.89,SE,134,0.0,1.0,78,0.08,,,0.07,Wunderground v.1.15,2013-07-27 19:14:00,
2013-07-27 15:19:00,77.9,70.9,29.89,SE,143,0.0,0.0,79,0.05,,,0.07,Wunderground v.1.15,2013-07-27 19:19:00,
2013-07-27 15:24:00,78.0,69.8,29.89,ESE,110,1.0,1.0,76,0.00,,,0.07,Wunderground v.1.15,2013-07-27 19:24:00,
2013-07-27 15:29:00,77.6,69.8,29.89,ENE,68,2.0,2.0,77,0.00,,,0.07,Wunderground v.1.15,2013-07-27 19:29:00,
2013-07-27 15:34:00,77.0,68.9,29.89,ENE,72,3.0,4.0,76,0.00,,,0.07,Wunderground v.1.15,2013-07-27 19:34:00,
2013-07-27 15:44:00,76.5,68.7,29.88,East,98,2.0,4.0,77,0.00,,,0.07,Wunderground v.1.15,2013-07-27 19:44:00,
2013-07-27 15:49:00,77.2,69.0,29.88,NNW,340,2.0,2.0,76,0.00,,,0.07,Wunderground v.1.15,2013-07-27 19:49:00,
2013-07-27 15:54:00,78.0,70.2,29.88,ESE,103,1.0,2.0,77,0.00,,,0.07,Wunderground v.1.15,2013-07-27 19:54:00,
2013-07-27 15:59:00,78.7,70.1,29.88,East,101,0.0,2.0,75,0.00,,,0.07,Wunderground v.1.15,2013-07-27 19:59:00,
2013-07-27 16:09:00,78.9,69.5,29.87,East,82,1.0,1.0,73,0.00,,,0.07,Wunderground v.1.15,2013-07-27 20:09:00,
2013-07-27 16:19:00,76.8,66.7,29.88,West,264,2.0,2.0,71,0.00,,,0.07,Wunderground v.1.15,2013-07-27 20:19:00,
2013-07-27 16:24:00,75.7,66.4,29.87,WNW,295,3.0,3.0,73,0.00,,,0.07,Wunderground v.1.15,2013-07-27 20:24:00,
2013-07-27 16:29:00,75.3,66.8,29.87,West,266,2.0,2.0,75,0.00,,,0.07,Wunderground v.1.15,2013-07-27 20:29:00,
2013-07-27 16:34:00,75.3,66.8,29.87,West,259,1.0,2.0,75,0.00,,,0.07,Wunderground v.1.15,2013-07-27 20:34:00,
2013-07-27 16:44:00,75.7,67.2,29.87,West,265,1.0,2.0,75,0.00,,,0.07,Wunderground v.1.15,2013-07-27 20:44:00,
2013-07-27 16:49:00,75.7,67.2,29.87,SW,218,1.0,2.0,75,0.00,,,0.07,Wunderground v.1.15,2013-07-27 20:49:00,
2013-07-27 16:54:00,75.8,67.3,29.87,WNW,291,1.0,2.0,75,0.00,,,0.07,Wunderground v.1.15,2013-07-27 20:54:00,
2013-07-27 16:59:00,75.7,68.0,29.87,WSW,240,1.0,1.0,77,0.00,,,0.07,Wunderground v.1.15,2013-07-27 20:59:00,
2013-07-27 17:09:00,75.5,67.8,29.87,SW,229,1.0,2.0,77,0.00,,,0.07,Wunderground v.1.15,2013-07-27 21:09:00,
2013-07-27 17:19:00,75.3,68.0,29.86,SW,215,1.0,1.0,78,0.00,,,0.07,Wunderground v.1.15,2013-07-27 21:19:00,
2013-07-27 17:24:00,75.1,67.4,29.86,SW,225,1.0,2.0,77,0.00,,,0.07,Wunderground v.1.15,2013-07-27 21:24:00,
2013-07-27 17:29:00,74.8,67.1,29.86,WNW,302,1.0,1.0,77,0.00,,,0.07,Wunderground v.1.15,2013-07-27 21:29:00,
2013-07-27 17:34:00,74.7,67.0,29.85,West,276,1.0,1.0,77,0.00,,,0.07,Wunderground v.1.15,2013-07-27 21:34:00,
2013-07-27 17:39:00,74.6,66.9,29.85,SW,236,0.0,0.0,77,0.00,,,0.07,Wunderground v.1.15,2013-07-27 21:39:00,
2013-07-27 17:44:00,74.7,67.4,29.85,WNW,289,0.0,0.0,78,0.00,,,0.07,Wunderground v.1.15,2013-07-27 21:44:00,
2013-07-27 17:49:00,74.8,67.5,29.85,SW,234,0.0,0.0,78,0.00,,,0.07,Wunderground v.1.15,2013-07-27 21:49:00,
2013-07-27 17:54:00,74.7,67.4,29.85,WSW,248,0.0,0.0,78,0.00,,,0.07,Wunderground v.1.15,2013-07-27 21:54:00,
2013-07-27 17:59:00,74.7,67.4,29.85,WSW,248,0.0,0.0,78,0.00,,,0.07,Wunderground v.1.15,2013-07-27 21:59:00,
2013-07-27 18:09:00,74.6,68.0,29.85,WSW,252,0.0,0.0,80,0.00,,,0.07,Wunderground v.1.15,2013-07-27 22:09:00,
2013-07-27 18:19:00,74.5,67.9,29.85,SE,124,0.0,0.0,80,0.00,,,0.07,Wunderground v.1.15,2013-07-27 22:19:00,
2013-07-27 18:24:00,74.4,68.2,29.85,SE,124,0.0,0.0,81,0.00,,,0.07,Wunderground v.1.15,2013-07-27 22:24:00,
2013-07-27 18:29:00,74.3,68.4,29.86,SE,124,0.0,0.0,82,0.00,,,0.07,Wunderground v.1.15,2013-07-27 22:29:00,
2013-07-27 18:34:00,74.2,69.1,29.86,West,275,0.0,0.0,84,0.00,,,0.07,Wunderground v.1.15,2013-07-27 22:34:00,
2013-07-27 18:39:00,74.0,69.2,29.87,WSW,240,0.0,0.0,85,0.00,,,0.07,Wunderground v.1.15,2013-07-27 22:39:00,
2013-07-27 18:44:00,73.8,69.0,29.86,WSW,257,0.0,0.0,85,0.00,,,0.07,Wunderground v.1.15,2013-07-27 22:44:00,
2013-07-27 18:54:00,73.5,69.4,29.87,WSW,251,0.0,0.0,87,0.00,,,0.08,Wunderground v.1.15,2013-07-27 22:54:00,
2013-07-27 18:59:00,73.4,69.3,29.87,WSW,248,0.0,0.0,87,0.00,,,0.08,Wunderground v.1.15,2013-07-27 22:59:00,
2013-07-27 19:09:00,72.9,69.5,29.87,WSW,249,0.0,0.0,89,0.10,,,0.10,Wunderground v.1.15,2013-07-27 23:09:00,
2013-07-27 19:14:00,72.5,69.7,29.87,WSW,249,0.0,0.0,91,0.10,,,0.11,Wunderground v.1.15,2013-07-27 23:14:00,
2013-07-27 19:24:00,71.9,69.4,29.86,WSW,249,0.0,0.0,92,0.05,,,0.11,Wunderground v.1.15,2013-07-27 23:24:00,
2013-07-27 19:29:00,71.6,69.2,29.86,WSW,249,0.0,0.0,92,0.04,,,0.11,Wunderground v.1.15,2013-07-27 23:29:00,
2013-07-27 19:34:00,71.6,69.5,29.87,WSW,249,0.0,0.0,93,0.00,,,0.12,Wunderground v.1.15,2013-07-27 23:34:00,
2013-07-27 19:39:00,71.5,69.7,29.86,WSW,249,0.0,0.0,94,0.00,,,0.12,Wunderground v.1.15,2013-07-27 23:39:00,
2013-07-27 19:44:00,71.3,69.5,29.87,WSW,249,0.0,0.0,94,0.06,,,0.13,Wunderground v.1.15,2013-07-27 23:44:00,
2013-07-27 19:49:00,71.2,69.4,29.86,WSW,249,0.0,0.0,94,0.31,,,0.15,Wunderground v.1.15,2013-07-27 23:49:00,
2013-07-27 19:59:00,71.1,69.6,29.86,ESE,103,0.0,0.0,95,0.11,,,0.17,Wunderground v.1.15,2013-07-27 23:59:00,
2013-07-27 20:09:00,70.8,69.0,29.86,ESE,104,0.0,0.0,94,0.06,,,0.18,Wunderground v.1.15,2013-07-28 00:09:00,
2013-07-27 20:14:00,70.7,68.9,29.86,ESE,104,0.0,0.0,94,0.04,,,0.18,Wunderground v.1.15,2013-07-28 00:14:00,
2013-07-27 20:19:00,70.7,68.9,29.86,ESE,103,0.0,0.0,94,0.00,,,0.18,Wunderground v.1.15,2013-07-28 00:19:00,
2013-07-27 20:29:00,70.5,68.7,29.86,ESE,103,0.0,0.0,94,0.12,,,0.20,Wunderground v.1.15,2013-07-28 00:29:00,
2013-07-27 20:34:00,70.3,68.8,29.86,ESE,103,0.0,0.0,95,0.10,,,0.20,Wunderground v.1.15,2013-07-28 00:34:00,
2013-07-27 20:39:00,70.2,68.7,29.86,ESE,103,0.0,0.0,95,0.06,,,0.20,Wunderground v.1.15,2013-07-28 00:39:00,
2013-07-27 20:44:00,70.1,68.6,29.86,ESE,104,0.0,0.0,95,0.04,,,0.20,Wunderground v.1.15,2013-07-28 00:44:00,
2013-07-27 20:49:00,70.0,68.5,29.86,ESE,104,0.0,0.0,95,0.00,,,0.20,Wunderground v.1.15,2013-07-28 00:49:00,
2013-07-27 20:54:00,69.9,68.4,29.87,ESE,104,0.0,0.0,95,0.00,,,0.20,Wunderground v.1.15,2013-07-28 00:54:00,
2013-07-27 20:59:00,69.9,68.7,29.87,ESE,104,0.0,0.0,96,0.00,,,0.20,Wunderground v.1.15,2013-07-28 00:59:00,
2013-07-27 21:09:00,69.7,68.5,29.87,ESE,103,0.0,0.0,96,0.00,,,0.20,Wunderground v.1.15,2013-07-28 01:09:00,
2013-07-27 21:14:00,69.7,68.5,29.87,ESE,103,0.0,0.0,96,0.00,,,0.21,Wunderground v.1.15,2013-07-28 01:14:00,
2013-07-27 21:19:00,69.8,68.3,29.87,ESE,103,0.0,0.0,95,0.00,,,0.21,Wunderground v.1.15,2013-07-28 01:19:00,
2013-07-27 21:24:00,69.7,68.2,29.87,ESE,108,0.0,0.0,95,0.00,,,0.21,Wunderground v.1.15,2013-07-28 01:24:00,
2013-07-27 21:34:00,69.6,68.1,29.88,SE,138,0.0,1.0,95,0.00,,,0.21,Wunderground v.1.15,2013-07-28 01:34:00,
2013-07-27 21:39:00,69.6,68.1,29.88,ESE,122,0.0,0.0,95,0.00,,,0.21,Wunderground v.1.15,2013-07-28 01:39:00,
2013-07-27 21:44:00,69.5,68.0,29.88,ESE,117,0.0,0.0,95,0.00,,,0.21,Wunderground v.1.15,2013-07-28 01:44:00,
2013-07-27 21:54:00,69.5,68.0,29.88,ESE,104,0.0,0.0,95,0.00,,,0.22,Wunderground v.1.15,2013-07-28 01:54:00,
2013-07-27 21:59:00,69.6,68.4,29.88,ESE,114,1.0,1.0,96,0.00,,,0.22,Wunderground v.1.15,2013-07-28 01:59:00,
2013-07-27 22:09:00,69.8,68.6,29.88,ESE,110,0.0,2.0,96,0.00,,,0.22,Wunderground v.1.15,2013-07-28 02:09:00,
2013-07-27 22:14:00,69.9,68.4,29.88,SSE,150,1.0,2.0,95,0.00,,,0.22,Wunderground v.1.15,2013-07-28 02:14:00,
2013-07-27 22:19:00,69.9,68.1,29.87,ESE,111,1.0,1.0,94,0.00,,,0.23,Wunderground v.1.15,2013-07-28 02:19:00,
2013-07-27 22:24:00,69.9,68.1,29.87,ESE,120,1.0,1.0,94,0.15,,,0.24,Wunderground v.1.15,2013-07-28 02:24:00,
2013-07-27 22:29:00,69.7,67.9,29.87,East,95,1.0,3.0,94,0.07,,,0.24,Wunderground v.1.15,2013-07-28 02:29:00,
2013-07-27 22:34:00,69.6,67.8,29.87,East,95,2.0,3.0,94,0.04,,,0.24,Wunderground v.1.15,2013-07-28 02:34:00,
2013-07-27 22:39:00,69.6,67.8,29.87,East,88,2.0,4.0,94,0.04,,,0.25,Wunderground v.1.15,2013-07-28 02:39:00,
2013-07-27 22:44:00,69.5,68.0,29.87,ESE,107,2.0,4.0,95,0.04,,,0.25,Wunderground v.1.15,2013-07-28 02:44:00,
2013-07-27 22:49:00,69.5,68.0,29.86,SE,128,1.0,1.0,95,0.04,,,0.25,Wunderground v.1.15,2013-07-28 02:49:00,
2013-07-27 22:54:00,69.5,68.0,29.86,SE,133,1.0,2.0,95,0.04,,,0.26,Wunderground v.1.15,2013-07-28 02:54:00,
2013-07-27 22:59:00,69.5,68.0,29.86,SSE,162,2.0,2.0,95,0.04,,,0.26,Wunderground v.1.15,2013-07-28 02:59:00,
2013-07-27 23:09:00,69.4,67.9,29.86,SE,129,2.0,2.0,95,0.04,,,0.26,Wunderground v.1.15,2013-07-28 03:09:00,
2013-07-27 23:14:00,69.4,67.9,29.86,ESE,113,2.0,2.0,95,0.00,,,0.26,Wunderground v.1.15,2013-07-28 03:14:00,
2013-07-27 23:19:00,69.3,67.8,29.85,SE,128,2.0,2.0,95,0.00,,,0.26,Wunderground v.1.15,2013-07-28 03:19:00,
2013-07-27 23:24:00,69.3,67.8,29.85,ESE,108,2.0,4.0,95,0.00,,,0.26,Wunderground v.1.15,2013-07-28 03:24:00,
2013-07-27 23:29:00,69.2,67.7,29.85,ESE,104,2.0,4.0,95,0.00,,,0.26,Wunderground v.1.15,2013-07-28 03:29:00,
2013-07-27 23:34:00,69.1,67.6,29.86,ESE,108,2.0,4.0,95,0.00,,,0.26,Wunderground v.1.15,2013-07-28 03:34:00,
2013-07-27 23:44:00,69.0,67.5,29.85,ESE,123,2.0,4.0,95,0.00,,,0.26,Wunderground v.1.15,2013-07-28 03:44:00,
2013-07-27 23:49:00,68.9,67.4,29.86,East,91,2.0,2.0,95,0.00,,,0.26,Wunderground v.1.15,2013-07-28 03:49:00,
2013-07-27 23:54:00,68.8,67.3,29.85,WSW,247,2.0,2.0,95,0.00,,,0.26,Wunderground v.1.15,2013-07-28 03:54:00,
2013-07-27 23:59:00,68.7,67.2,29.85,East,98,1.0,2.0,95,0.00,,,0.26,Wunderground v.1.15,2013-07-28 03:59:00,